This demonstration page uses our WeatherBlox Daily Observations layout. Learn more.

Left ArrowRight Arrow

41.86663, -103.66717

Hourly Observations for June 30, 2021

Temp ( °F °C ) Dew Point ( °F °C ) Humidity (%) Winds ( mph kmh ) Pressure ( in mb ) Visibility ( mi km ) Precip ( " mm )
12:53 am 00:53 Clear 62 16.7 51 10.6 67 67 E 8 13 30.10 1019 10 16 N/A
1:53 am 01:53 Clear 60 15.6 51 10.6 72 72 E 7 11 30.08 1019 10 16 N/A
2:53 am 02:53 Clear 59 15 51 10.6 75 75 E 7 11 30.07 1018 10 16 N/A
3:53 am 03:53 Clear 59 15 52 11.1 78 78 E 8 13 30.06 1018 10 16 N/A
4:53 am 04:53 Mostly Clear 59 15 52 11.1 78 78 E 7 11 30.06 1018 10 16 N/A
5:53 am 05:53 Mostly Sunny 59 15 54 12.2 83 83 E 7 11 30.07 1018 10 16 N/A
6:53 am 06:53 Cloudy 63 17.2 56 13.3 78 78 ESE 9 15 30.07 1018 10 16 N/A
7:53 am 07:53 Sunny 67 19.4 56 13.3 68 68 SE 8 13 30.07 1018 10 16 N/A
8:53 am 08:53 Sunny 71 21.7 55 12.8 57 57 E 6 9 30.09 1019 10 16 N/A
9:53 am 09:53 Sunny 74 23.3 55 12.8 52 52 VRB 7 11 30.07 1018 10 16 N/A
10:53 am 10:53 Sunny 80 26.7 54 12.2 41 41 ESE 12 19 30.05 1018 10 16 N/A
11:53 am 11:53 Partly Cloudy 80 26.7 55 12.8 42 42 S 5 7 30.04 1017 10 16 N/A
12:53 pm 12:53 Mostly Sunny 86 30 50 10 29 29 SSE 16 26 30.02 1017 10 16 N/A
1:53 pm 13:53 Mostly Sunny 85 29.4 50 10 30 30 SSE 12 19 30.01 1016 10 16 N/A
2:53 pm 14:53 Mostly Cloudy 88 31.1 50 10 27 27 ESE 14 22 29.99 1016 10 16 N/A
3:53 pm 15:53 Sunny 88 31.1 49 9.4 26 26 ESE 17 28 29.98 1015 9 14 N/A
4:53 pm 16:53 Sunny 86 30 50 10 29 29 SE 16 26 29.97 1015 7 11 N/A
5:26 pm 17:26 Mostly Sunny 85 29.4 50 10 30 30 SSE 12 19 29.78 1009 10 16 N/A
5:53 pm 17:53 Sunny 86 30 52 11.1 31 31 SSE 14 22 29.96 1015 10 16 N/A
6:53 pm 18:53 Sunny 82 27.8 54 12.2 38 38 SSE 15 24 29.97 1015 10 16 N/A
7:53 pm 19:53 Sunny 80 26.7 54 12.2 41 41 ESE 12 19 29.97 1015 10 16 N/A
8:53 pm 20:53 Clear 75 23.9 56 13.3 52 52 ESE 10 17 29.98 1015 10 16 N/A
9:53 pm 21:53 Hazy 73 22.8 57 13.9 57 57 ESE 14 22 30.00 1016 6 10 N/A
10:53 pm 22:53 Clear 70 21.1 57 13.9 64 64 ESE 13 20 30.00 1016 10 16 N/A
11:53 pm 23:53 Clear 67 19.4 57 13.9 71 71 ESE 10 17 30.01 1016 10 16 N/A

Powered by AerisWeather